period_start,C,m1,H,J0,J1,J2,J3,J4,J5,JA,JB,JC,JD,JJ,JK,JN,#
2014-06-17 00:00:57,0.03,0.92,0.00,27.61,32.65,35.47,9.44,39.21,1008.80,2015.98,3039.12,3024.04,3280.99,500.21,485.50,14.50,0000 0000 0000 0000 000000
2014-06-17 00:05:58,0.02,0.92,0.00,27.57,32.63,35.45,9.46,39.30,1008.80,2015.99,3038.83,3024.00,3280.53,500.11,485.72,14.54,0000 0000 0000 0000 000000
2014-06-17 00:10:59,0.02,0.92,0.00,27.54,32.61,35.42,9.50,39.42,1008.80,2015.99,3038.06,3023.96,3280.02,500.11,485.53,14.58,0000 0000 0000 0000 000000
2014-06-17 00:16:00,0.04,0.92,0.00,27.51,32.59,35.42,9.43,39.23,1008.80,2015.99,3037.57,3023.51,3279.83,500.18,485.65,14.62,0000 0000 0000 0000 000000
2014-06-17 00:21:01,0.03,0.92,0.00,27.47,32.56,35.42,9.43,39.21,1008.80,2015.99,3036.88,3023.02,3279.08,499.91,485.49,14.66,0000 0000 0000 0000 000000
2014-06-17 00:26:02,0.02,0.93,0.00,27.47,32.54,35.33,9.42,39.23,1008.81,2016.04,3036.13,3022.93,3278.94,500.12,485.63,14.71,0000 0000 0000 0000 000000
2014-06-17 00:31:03,0.06,0.93,0.00,27.45,32.52,35.32,9.46,39.15,1008.82,2016.16,3035.66,3022.31,3278.28,500.48,486.06,14.75,0000 0000 0000 0000 000000
2014-06-17 00:36:04,0.04,0.93,0.00,27.41,32.50,35.33,9.37,39.03,1008.88,2016.34,3034.89,3021.99,3277.93,499.93,485.69,14.79,0000 0000 0000 0000 000000
2014-06-17 00:41:05,0.10,0.93,0.00,27.40,32.47,35.35,9.49,39.13,1008.95,2016.64,3034.06,3021.48,3277.21,500.27,486.10,14.83,0000 0000 0000 0000 000000
2014-06-17 00:46:07,0.04,0.94,0.00,27.38,32.45,35.28,9.41,39.08,1009.20,2016.84,3033.18,3020.99,3276.66,500.05,485.71,14.87,0000 0000 0000 0000 000000
2014-06-17 00:51:08,0.05,0.94,0.00,27.37,32.43,35.27,9.41,39.01,1009.29,2016.89,3032.38,3020.38,3275.99,499.94,486.02,14.92,0000 0000 0000 0000 000000
2014-06-17 00:56:09,0.04,0.94,0.00,27.36,32.41,35.26,9.40,39.08,1009.29,2016.94,3031.73,3020.00,3275.28,500.07,485.98,14.96,0000 0000 0000 0000 000000
2014-06-17 01:01:10,0.05,0.94,0.00,27.37,32.39,35.23,9.35,39.08,1009.30,2016.98,3030.82,3019.57,3274.85,499.87,485.82,15.00,0000 0000 0000 0000 000000
2014-06-17 01:06:11,0.04,0.95,0.00,27.31,32.36,35.19,9.45,39.22,1009.31,2016.99,3029.96,3018.99,3274.06,500.21,486.25,15.04,0000 0000 0000 0000 000000
2014-06-17 01:11:12,0.06,0.95,0.00,27.28,32.34,35.24,9.43,39.05,1009.34,2016.99,3029.02,3018.45,3273.35,500.18,486.45,15.08,0000 0000 0000 0000 000000
2014-06-17 01:16:13,0.03,0.95,0.00,27.29,32.32,35.20,9.36,39.21,1009.34,2016.99,3028.06,3017.99,3272.77,499.84,486.01,15.12,0000 0000 0000 0000 000000
2014-06-17 01:21:14,0.06,0.95,0.00,27.25,32.30,35.13,9.43,39.25,1009.40,2017.00,3027.24,3017.28,3272.02,500.07,486.27,15.17,0000 0000 0000 0000 000000
2014-06-17 01:26:15,0.04,0.95,0.00,27.24,32.28,35.11,9.45,39.22,1009.51,2017.04,3026.43,3016.98,3271.28,500.10,486.52,15.21,0000 0000 0000 0000 000000
2014-06-17 01:31:16,0.03,0.95,0.00,27.18,32.26,35.05,9.50,39.43,1009.73,2017.04,3025.95,3016.38,3270.92,500.08,486.46,15.25,0000 0000 0000 0000 000000
2014-06-17 01:36:17,0.04,0.96,0.00,27.11,32.23,35.07,9.45,39.47,1009.74,2017.08,3025.31,3016.01,3270.17,500.16,486.63,15.29,0000 0000 0000 0000 000000
2014-06-17 01:41:18,0.05,0.96,0.00,26.96,32.21,34.90,9.49,39.54,1009.73,2017.12,3024.93,3015.55,3269.82,500.30,487.21,15.33,0000 0000 0000 0000 000000
2014-06-17 01:46:19,0.07,0.96,0.00,26.74,32.18,34.88,9.39,39.33,1009.77,2017.37,3024.12,3015.02,3269.07,499.55,486.75,15.38,0000 0000 0000 0000 000000
2014-06-17 01:51:21,0.05,0.96,0.00,26.53,32.15,34.82,9.45,39.48,1009.80,2017.81,3023.88,3014.98,3268.96,500.09,487.78,15.42,0000 0000 0000 0000 000000
2014-06-17 01:56:22,0.05,0.97,0.00,26.41,32.11,34.70,9.45,39.38,1010.02,2017.97,3023.06,3014.69,3268.23,500.16,488.07,15.46,0000 0000 0000 0000 000000
2014-06-17 02:01:23,0.04,0.97,0.00,26.41,32.06,34.60,9.49,39.51,1010.13,2017.99,3022.26,3014.08,3267.97,499.96,487.90,15.50,0000 0000 0000 0000 000000
2014-06-17 02:06:24,0.02,0.97,0.00,26.37,32.01,34.50,9.46,39.31,1010.24,2017.99,3021.90,3014.00,3267.43,500.10,488.13,15.54,0000 0000 0000 0000 000000
2014-06-17 02:11:25,0.03,0.97,0.00,26.33,31.96,34.39,9.53,39.37,1010.19,2018.04,3021.28,3013.98,3267.04,500.15,488.09,15.58,0000 0000 0000 0000 000000
2014-06-17 02:16:27,0.06,0.97,0.00,26.32,31.91,34.35,9.39,39.38,1010.20,2018.33,3020.98,3013.78,3266.99,499.75,487.87,15.63,0000 0000 0000 0000 000000
2014-06-17 02:21:28,0.08,0.98,0.00,26.26,31.86,34.31,9.41,39.58,1010.20,2018.86,3020.73,3013.34,3266.90,499.96,488.26,15.67,0000 0000 0000 0000 000000
2014-06-17 02:26:29,0.04,0.98,0.00,26.23,31.81,34.27,9.43,39.46,1010.27,2018.99,3020.05,3013.04,3266.18,499.90,488.25,15.71,0000 0000 0000 0000 000000
2014-06-17 02:31:30,0.00,0.98,0.00,26.21,31.75,34.25,9.58,39.48,1010.27,2019.00,3019.96,3013.01,3266.00,500.56,488.83,15.75,0000 0000 0000 0000 000000
2014-06-17 02:36:32,0.02,0.98,0.00,26.21,31.70,34.23,9.49,39.48,1010.27,2019.03,3019.22,3012.99,3265.99,499.87,488.17,15.79,0000 0000 0000 0000 000000
2014-06-17 02:41:33,0.06,0.98,0.00,26.22,31.65,34.18,9.59,39.57,1010.27,2019.46,3019.00,3012.97,3265.91,500.06,488.12,15.84,0000 0000 0000 0000 000000
2014-06-17 02:46:34,0.06,0.99,0.00,26.15,31.61,34.12,9.48,39.73,1010.26,2019.94,3018.71,3012.88,3265.29,499.63,488.03,15.88,0000 0000 0000 0000 000000
2014-06-17 02:51:35,0.02,0.99,0.00,26.11,31.56,34.08,9.43,39.64,1010.25,2019.99,3018.29,3012.78,3265.07,499.92,488.35,15.92,0000 0000 0000 0000 000000
2014-06-17 02:56:36,0.01,0.99,0.00,26.09,31.51,34.13,9.51,39.64,1010.27,2020.00,3018.01,3012.45,3265.00,499.97,488.38,15.96,0000 0000 0000 0000 000000
2014-06-17 03:01:38,0.01,0.99,0.00,26.22,31.46,34.25,9.46,39.67,1010.27,2020.08,3017.98,3012.26,3265.01,499.81,488.17,16.00,0000 0000 0000 0000 000000
2014-06-17 03:06:38,0.09,0.99,0.00,26.25,31.42,34.19,9.50,39.54,1010.30,2020.58,3017.69,3012.10,3265.00,499.98,488.11,16.04,0000 0000 0000 0000 000000
2014-06-17 03:11:40,0.03,0.99,0.00,26.27,31.39,34.16,9.51,39.62,1010.30,2020.91,3017.22,3012.02,3264.90,499.89,488.14,16.09,0000 0000 0000 0000 000000
2014-06-17 03:16:41,0.02,0.99,0.00,26.27,31.36,34.15,9.32,39.48,1010.34,2020.99,3016.98,3012.00,3264.30,499.78,487.93,16.13,0000 0000 0000 0000 000000
2014-06-17 03:21:42,0.02,0.99,0.00,26.27,31.34,34.14,9.49,39.39,1010.74,2020.99,3016.54,3011.98,3264.01,499.90,488.33,16.17,0000 0000 0000 0000 000000
2014-06-17 03:26:42,0.01,1.00,0.00,26.27,31.31,34.09,9.44,39.25,1010.76,2021.02,3016.01,3011.87,3263.99,500.05,488.52,16.21,0000 0000 0000 0000 000000
2014-06-17 03:31:44,0.03,1.00,0.00,26.29,31.30,34.08,9.52,39.39,1010.76,2021.04,3015.98,3011.22,3263.73,500.49,488.88,16.25,0000 0000 0000 0000 000000
2014-06-17 03:36:45,0.01,1.00,0.00,26.30,31.27,34.07,9.38,39.38,1010.79,2021.09,3015.97,3011.02,3263.34,500.02,488.27,16.30,0000 0000 0000 0000 000000
2014-06-17 03:41:46,0.03,1.00,0.00,26.30,31.26,34.03,9.50,39.58,1010.92,2021.21,3015.56,3010.99,3263.02,500.07,488.48,16.34,0000 0000 0000 0000 000000
2014-06-17 03:46:47,0.04,1.00,0.00,26.28,31.24,34.03,9.36,39.36,1011.07,2021.47,3015.03,3010.96,3263.00,499.85,488.67,16.38,0000 0000 0000 0000 000000
2014-06-17 03:51:48,0.01,1.00,0.00,26.29,31.22,34.03,9.46,39.61,1010.83,2021.65,3015.07,3010.93,3263.00,500.45,488.79,16.42,0000 0000 0000 0000 000000
2014-06-17 03:56:49,0.03,1.00,0.00,26.28,31.21,34.01,9.49,39.95,1010.77,2021.79,3015.05,3010.86,3263.00,499.86,488.21,16.46,0000 0000 0000 0000 000000
2014-06-17 04:01:50,0.02,1.00,0.00,26.26,31.20,33.99,9.48,39.77,1010.86,2021.84,3014.99,3010.30,3262.83,499.77,488.28,16.51,0000 0000 0000 0000 000000
2014-06-17 04:06:52,0.02,1.00,0.00,26.25,31.17,33.97,9.39,39.67,1011.14,2021.88,3014.94,3010.12,3262.52,499.83,488.54,16.55,0000 0000 0000 0000 000000
2014-06-17 04:11:53,-0.01,1.00,0.00,26.23,31.16,33.98,9.48,39.67,1011.22,2021.98,3014.96,3010.29,3262.74,500.08,488.86,16.59,0000 0000 0000 0000 000000
2014-06-17 04:16:54,0.02,1.00,0.00,26.21,31.15,33.96,9.41,39.66,1011.24,2021.99,3014.96,3010.16,3262.66,500.30,488.96,16.63,0000 0000 0000 0000 000000
2014-06-17 04:21:55,0.00,1.01,0.00,26.19,31.13,33.95,9.39,39.55,1011.33,2021.99,3014.77,3010.12,3262.29,499.64,488.43,16.67,0000 0000 0000 0000 000000
2014-06-17 04:26:56,0.01,1.01,0.00,26.16,31.12,33.93,9.52,39.62,1011.66,2021.99,3014.80,3010.09,3262.16,500.06,489.04,16.72,0000 0000 0000 0000 000000
2014-06-17 04:31:57,0.00,1.01,0.00,26.15,31.10,33.91,9.53,39.50,1011.73,2021.99,3014.58,3010.04,3262.05,500.23,489.67,16.76,0000 0000 0000 0000 000000
2014-06-17 04:36:58,0.01,1.01,0.00,26.14,31.09,33.90,9.52,39.38,1011.73,2022.00,3014.17,3010.00,3262.00,500.05,489.07,16.80,0000 0000 0000 0000 000000
2014-06-17 04:41:59,0.00,1.01,0.00,26.12,31.07,33.90,9.51,39.48,1011.73,2022.01,3013.98,3010.00,3261.96,500.13,489.06,16.84,0000 0000 0000 0000 000000
2014-06-17 04:47:01,0.02,1.01,0.00,26.10,31.05,33.87,9.51,39.57,1011.73,2022.06,3013.60,3009.98,3261.43,500.00,489.19,16.88,0000 0000 0000 0000 000000
2014-06-17 04:52:02,0.03,1.01,0.00,26.09,31.05,33.87,9.60,39.42,1011.75,2022.10,3013.19,3009.65,3261.03,500.28,489.37,16.92,0000 0000 0000 0000 000000
2014-06-17 04:57:03,0.03,1.01,0.00,26.07,31.02,33.86,9.40,39.17,1011.94,2022.21,3013.00,3009.10,3260.99,499.63,488.86,16.97,0000 0000 0000 0000 000000
2014-06-17 05:02:04,0.02,1.01,0.00,26.07,31.01,33.83,9.53,39.38,1012.18,2022.28,3013.00,3009.01,3260.98,500.02,489.55,17.01,0000 0000 0000 0000 000000
2014-06-17 05:07:05,0.04,1.01,0.00,26.06,31.00,33.83,9.50,39.51,1012.19,2022.64,3013.01,3009.04,3260.97,500.29,489.75,17.05,0000 0000 0000 0000 000000
2014-06-17 05:12:06,0.00,1.01,0.00,26.04,30.99,33.83,9.44,39.64,1012.23,2022.65,3013.00,3009.01,3260.95,500.03,489.40,17.09,0000 0000 0000 0000 000000
2014-06-17 05:17:07,0.02,1.01,0.00,26.01,30.97,33.79,9.40,39.75,1012.22,2022.77,3012.99,3009.00,3260.78,499.80,489.51,17.13,0000 0000 0000 0000 000000
2014-06-17 05:22:08,0.01,1.01,0.00,25.98,30.95,33.79,9.42,39.58,1012.23,2022.84,3012.90,3009.00,3260.26,499.74,489.44,17.18,0000 0000 0000 0000 000000
2014-06-17 05:27:09,0.02,1.02,0.00,25.95,30.94,33.77,9.42,39.57,1012.26,2022.92,3012.33,3008.99,3260.04,499.99,489.66,17.22,0000 0000 0000 0000 000000
2014-06-17 05:32:10,0.01,1.02,0.00,25.93,30.92,33.76,9.46,39.80,1012.45,2022.98,3012.03,3008.98,3260.01,500.07,489.87,17.26,0000 0000 0000 0000 000000
2014-06-17 05:37:11,0.00,1.02,0.00,25.91,30.90,33.76,9.46,39.89,1012.60,2022.99,3012.00,3008.96,3260.00,499.94,489.86,17.30,0000 0000 0000 0000 000000
2014-06-17 05:42:12,0.00,1.02,0.00,25.87,30.88,33.75,9.47,39.87,1012.65,2022.99,3011.97,3008.95,3260.00,500.05,490.14,17.34,0000 0000 0000 0000 000000
2014-06-17 05:47:13,0.03,1.02,0.00,25.83,30.86,33.73,9.43,39.68,1012.72,2023.00,3011.29,3008.73,3259.84,499.78,489.83,17.39,0000 0000 0000 0000 000000
2014-06-17 05:52:14,0.03,1.02,0.00,25.80,30.85,33.72,9.50,39.92,1012.72,2023.00,3011.01,3008.26,3259.28,499.81,489.91,17.43,0000 0000 0000 0000 000000
2014-06-17 05:57:16,0.01,1.02,0.00,25.76,30.82,33.70,9.44,39.86,1012.72,2023.01,3011.00,3008.09,3259.05,499.95,490.32,17.47,0000 0000 0000 0000 000000
2014-06-17 06:02:16,0.01,1.02,0.00,25.73,30.80,33.68,9.58,39.88,1012.81,2023.03,3010.90,3008.02,3259.00,500.52,490.64,17.51,0000 0000 0000 0000 000000
2014-06-17 06:07:18,0.04,1.02,0.00,25.70,30.77,33.67,9.52,39.84,1013.04,2023.22,3010.72,3008.01,3259.00,499.79,490.16,17.55,0000 0000 0000 0000 000000
2014-06-17 06:12:19,0.02,1.02,0.00,25.72,30.75,33.65,9.46,39.74,1013.19,2023.34,3010.17,3008.00,3258.98,499.62,490.05,17.60,0000 0000 0000 0000 000000
2014-06-17 06:17:20,0.05,1.02,0.00,25.93,30.73,33.62,9.56,39.88,1013.20,2023.72,3010.11,3008.00,3258.97,500.21,490.42,17.64,0000 0000 0000 0000 000000
2014-06-17 06:22:21,0.00,1.02,0.00,26.33,30.71,33.59,9.50,39.85,1013.20,2023.91,3010.09,3008.00,3258.90,499.89,489.52,17.68,0000 0000 0000 0000 000000
2014-06-17 06:27:22,0.01,1.02,0.00,26.54,30.70,33.57,9.46,39.76,1013.29,2023.96,3010.08,3008.00,3258.61,499.90,489.13,17.72,0000 0000 0000 0000 000000
2014-06-17 06:32:23,0.01,1.03,0.00,26.67,30.70,33.53,9.35,39.78,1013.54,2023.96,3010.02,3007.96,3258.12,499.41,488.56,17.76,0000 0000 0000 0000 000000
2014-06-17 06:37:24,0.01,1.03,0.00,26.78,30.70,33.46,9.44,39.62,1013.67,2023.93,3009.98,3007.57,3258.00,500.15,489.16,17.80,0000 0000 0000 0000 000000
2014-06-17 06:42:25,0.03,1.03,0.00,26.85,30.70,33.44,9.47,39.70,1013.69,2023.86,3009.49,3007.02,3257.83,500.33,489.31,17.85,0000 0000 0000 0000 000000
2014-06-17 06:47:26,0.02,1.03,0.00,26.89,30.72,33.48,9.48,39.58,1013.71,2023.94,3009.12,3007.00,3257.38,500.40,489.17,17.89,0000 0000 0000 0000 000000
2014-06-17 06:52:28,0.00,1.03,0.00,26.92,30.73,33.52,9.50,39.76,1013.70,2023.89,3009.00,3007.00,3257.02,500.14,488.95,17.93,0000 0000 0000 0000 000000
2014-06-17 06:57:29,-0.00,1.03,0.00,26.94,30.75,33.59,9.40,39.69,1013.82,2023.78,3008.91,3006.82,3256.94,500.10,488.83,17.97,0000 0000 0000 0000 000000
2014-06-17 07:02:30,0.02,1.03,0.00,26.95,30.77,33.70,9.35,39.48,1013.89,2023.51,3008.33,3006.14,3256.25,499.92,488.79,18.01,0000 0000 0000 0000 000000
2014-06-17 07:07:31,-0.03,1.03,0.00,26.97,30.79,33.81,9.50,39.45,1013.89,2023.21,3008.01,3006.00,3256.00,500.18,488.92,18.06,0000 0000 0000 0000 000000
2014-06-17 07:12:33,-0.00,1.03,0.00,26.94,30.81,33.81,9.42,39.55,1013.92,2023.04,3007.97,3005.90,3255.76,499.85,488.85,18.10,0000 0000 0000 0000 000000
2014-06-17 07:17:34,0.05,1.03,0.00,26.87,30.83,33.91,9.34,39.51,1014.03,2023.04,3007.34,3005.15,3255.04,499.41,488.45,18.14,0000 0000 0000 0000 000000
2014-06-17 07:22:35,0.01,1.03,0.00,26.75,30.85,33.95,9.39,39.68,1014.12,2023.00,3007.00,3004.99,3254.69,499.62,488.98,18.18,0000 0000 0000 0000 000000
2014-06-17 07:27:51,0.03,1.03,0.00,26.71,30.87,34.01,9.40,39.58,1014.17,2023.00,3006.85,3004.70,3254.04,499.55,488.93,18.22,0000 0000 0000 0000 000000
2014-06-17 07:32:52,0.04,1.03,0.00,26.68,30.88,33.98,9.35,39.61,1014.18,2023.00,3006.12,3004.04,3253.64,499.40,488.84,18.27,0000 0000 0000 0000 000000
2014-06-17 07:37:54,0.01,1.03,0.00,26.60,30.90,33.98,9.55,39.72,1014.31,2022.99,3005.91,3003.96,3253.01,500.26,489.68,18.31,0000 0000 0000 0000 000000
2014-06-17 07:42:55,0.04,1.04,0.00,26.56,30.90,33.99,9.44,39.67,1014.59,2022.98,3005.17,3003.42,3252.70,499.96,489.87,18.35,0000 0000 0000 0000 000000
2014-06-17 07:47:56,0.02,1.04,0.00,26.54,30.90,33.91,9.46,39.68,1014.65,2022.98,3005.02,3003.06,3252.07,499.92,489.67,18.39,0000 0000 0000 0000 000000
2014-06-17 07:52:58,0.00,1.04,0.00,26.50,30.90,33.85,9.44,39.71,1014.65,2022.99,3004.98,3003.00,3252.00,499.88,489.75,18.43,0000 0000 0000 0000 000000
2014-06-17 07:57:59,0.00,1.04,0.00,26.48,30.90,33.85,9.61,39.65,1014.69,2022.99,3004.80,3003.00,3251.93,499.94,489.90,18.48,0000 0000 0000 0000 000000
2014-06-17 08:03:00,0.03,1.04,0.00,26.46,30.90,33.79,9.44,39.52,1014.89,2022.98,3004.18,3002.92,3251.31,500.09,490.25,18.52,0000 0000 0000 0000 000000
2014-06-17 08:08:01,0.01,1.04,0.00,26.42,30.90,33.81,9.58,39.72,1014.92,2022.98,3004.04,3002.58,3251.05,500.59,490.75,18.56,0000 0000 0000 0000 000000
2014-06-17 08:13:02,0.01,1.04,0.00,26.39,30.88,33.79,9.42,39.63,1015.14,2022.98,3003.99,3002.13,3250.99,500.04,490.40,18.60,0000 0000 0000 0000 000000
2014-06-17 08:18:03,0.01,1.04,0.00,26.36,30.87,33.72,9.48,39.55,1015.15,2022.99,3003.81,3002.01,3250.90,500.03,490.49,18.64,0000 0000 0000 0000 000000
2014-06-17 08:23:04,0.01,1.04,0.00,26.33,30.86,33.70,9.31,39.56,1015.15,2022.98,3003.50,3002.00,3250.35,499.30,489.86,18.69,0000 0000 0000 0000 000000
2014-06-17 08:28:05,0.01,1.04,0.00,26.31,30.85,33.67,9.58,39.59,1015.15,2022.99,3003.28,3001.97,3250.03,500.53,490.93,18.73,0000 0000 0000 0000 000000
2014-06-17 08:33:06,0.01,1.04,0.00,26.27,30.83,33.66,9.48,39.56,1015.27,2022.98,3002.98,3001.77,3250.00,500.18,490.87,18.77,0000 0000 0000 0000 000000
2014-06-17 08:38:07,0.04,1.04,0.00,26.24,30.82,33.63,9.61,39.47,1015.51,2022.99,3002.28,3001.14,3249.73,500.32,491.15,18.81,0000 0000 0000 0000 000000
2014-06-17 08:43:09,0.01,1.05,0.00,26.25,30.80,33.67,9.39,39.38,1015.62,2022.99,3002.03,3001.01,3249.14,499.72,490.61,18.85,0000 0000 0000 0000 000000
2014-06-17 08:48:10,0.01,1.05,0.00,26.25,30.79,33.59,9.46,39.48,1015.64,2022.99,3001.82,3001.00,3248.99,499.83,490.70,18.89,0000 0000 0000 0000 000000
2014-06-17 08:53:11,0.00,1.05,0.00,26.27,30.77,33.61,9.40,39.49,1015.64,2022.99,3001.42,3000.84,3248.82,499.94,490.79,18.94,0000 0000 0000 0000 000000
2014-06-17 08:58:12,0.05,1.05,0.00,26.26,30.76,33.58,9.41,39.44,1015.65,2023.00,3001.13,3000.22,3248.15,500.02,490.69,18.98,0000 0000 0000 0000 000000
2014-06-17 09:03:13,0.00,1.05,0.00,26.26,30.75,33.62,9.41,39.41,1015.67,2023.00,3001.00,3000.01,3248.00,499.59,490.63,19.02,0000 0000 0000 0000 000000
2014-06-17 09:08:15,0.00,1.05,0.00,26.24,30.74,33.61,9.52,39.42,1015.67,2023.00,3000.95,3000.00,3248.00,500.24,491.19,19.06,0000 0000 0000 0000 000000
2014-06-17 09:13:16,0.01,1.05,0.00,26.23,30.72,33.54,9.55,39.49,1015.70,2023.01,3000.43,3000.00,3247.90,500.22,491.20,19.10,0000 0000 0000 0000 000000
2014-06-17 09:18:17,0.02,1.05,0.00,26.22,30.71,33.57,9.42,39.45,1015.96,2023.01,3000.47,2999.98,3247.67,499.83,490.84,19.15,0000 0000 0000 0000 000000
2014-06-17 09:23:18,0.02,1.05,0.00,26.21,30.70,33.54,9.53,39.41,1016.00,2023.03,3000.01,2999.89,3247.06,499.67,490.75,19.19,0000 0000 0000 0000 000000
2014-06-17 09:28:19,0.01,1.05,0.00,26.21,30.69,33.48,9.53,39.47,1015.96,2023.08,3000.00,2999.84,3247.04,500.05,491.10,19.23,0000 0000 0000 0000 000000
2014-06-17 09:33:20,0.00,1.05,0.00,26.20,30.67,33.52,9.41,39.55,1016.09,2023.10,3000.01,2999.72,3247.02,499.99,491.04,19.27,0000 0000 0000 0000 000000
2014-06-17 09:38:21,0.02,1.05,0.00,26.21,30.66,33.54,9.50,39.42,1016.13,2023.22,3000.00,2999.52,3247.00,500.21,491.40,19.31,0000 0000 0000 0000 000000
2014-06-17 09:43:22,0.03,1.05,0.00,26.21,30.65,33.50,9.58,39.40,1016.14,2023.42,3000.00,2999.27,3246.99,500.19,491.34,19.36,0000 0000 0000 0000 000000
2014-06-17 09:48:23,0.03,1.05,0.00,26.22,30.64,33.56,9.52,39.42,1016.17,2023.64,2999.91,2999.16,3246.99,500.24,491.42,19.40,0000 0000 0000 0000 000000
2014-06-17 09:53:25,0.03,1.06,0.00,26.24,30.62,33.50,9.56,39.42,1016.47,2023.83,2999.68,2999.05,3246.97,500.50,491.63,19.44,0000 0000 0000 0000 000000
2014-06-17 09:58:26,0.01,1.06,0.00,26.26,30.62,33.49,9.44,39.33,1016.56,2023.93,2999.13,2999.03,3246.87,499.71,491.12,19.48,0000 0000 0000 0000 000000
2014-06-17 10:03:27,0.00,1.06,0.00,26.27,30.60,33.54,9.45,39.30,1016.54,2023.97,2999.24,2999.02,3246.90,499.81,491.01,19.52,0000 0000 0000 0000 000000
2014-06-17 10:08:28,0.00,1.06,0.00,26.26,30.60,33.57,9.54,39.31,1016.62,2023.99,2999.18,2999.02,3246.75,499.93,491.24,19.56,0000 0000 0000 0000 000000
2014-06-17 10:13:30,0.01,1.06,0.00,26.25,30.60,33.58,9.48,39.27,1016.63,2023.97,2999.12,2999.00,3246.28,499.93,491.35,19.61,0000 0000 0000 0000 000000
2014-06-17 10:18:31,0.00,1.06,0.00,26.24,30.57,33.53,9.50,39.39,1016.69,2023.97,2999.07,2998.99,3246.09,500.20,491.64,19.65,0000 0000 0000 0000 000000
2014-06-17 10:23:32,-0.00,1.06,0.00,26.20,30.57,33.50,9.60,39.38,1016.90,2023.97,2999.04,2998.98,3246.03,500.44,491.96,19.69,0000 0000 0000 0000 000000
2014-06-17 10:28:33,0.00,1.06,0.00,26.16,30.56,33.52,9.53,39.24,1016.94,2023.99,2998.89,2998.94,3246.00,499.85,491.65,19.73,0000 0000 0000 0000 000000
2014-06-17 10:33:34,0.00,1.06,0.00,26.12,30.55,33.51,9.47,39.40,1017.03,2023.99,2998.94,2998.90,3245.99,500.00,491.59,19.77,0000 0000 0000 0000 000000
2014-06-17 10:38:35,0.03,1.06,0.00,26.07,30.55,33.44,9.57,39.56,1017.07,2023.99,2998.22,2998.44,3245.97,500.11,492.24,19.82,0000 0000 0000 0000 000000
2014-06-17 10:43:37,0.00,1.06,0.00,26.04,30.52,33.38,9.46,39.40,1017.07,2023.99,2998.03,2998.24,3245.95,499.70,491.57,19.86,0000 0000 0000 0000 000000
2014-06-17 10:48:38,0.00,1.06,0.00,26.00,30.51,33.32,9.40,39.52,1017.08,2023.99,2998.00,2998.24,3245.88,500.00,491.82,19.90,0000 0000 0000 0000 000000
2014-06-17 10:53:39,0.01,1.06,0.00,25.97,30.50,33.33,9.57,39.52,1017.10,2023.99,2998.00,2998.09,3245.67,499.95,491.88,19.94,0000 0000 0000 0000 000000
2014-06-17 10:58:40,0.00,1.06,0.00,25.94,30.48,33.32,9.50,39.43,1017.10,2024.00,2998.01,2998.06,3245.65,500.24,492.14,19.98,0000 0000 0000 0000 000000
2014-06-17 11:03:41,-0.00,1.06,0.00,25.91,30.47,33.28,9.43,39.71,1017.10,2024.01,2998.01,2998.15,3245.74,499.62,491.54,20.03,0000 0000 0000 0000 000000
2014-06-17 11:08:43,0.00,1.06,0.00,25.90,30.45,33.36,9.54,39.63,1017.14,2024.02,2998.00,2998.17,3245.73,499.80,492.09,20.07,0000 0000 0000 0000 000000
2014-06-17 11:13:44,-0.00,1.06,0.00,25.91,30.42,33.32,9.48,39.37,1017.41,2024.04,2998.00,2998.16,3245.70,499.80,492.10,20.11,0000 0000 0000 0000 000000
2014-06-17 11:18:45,0.01,1.06,0.00,25.90,30.41,33.31,9.61,39.40,1017.57,2024.11,2997.98,2998.26,3245.64,500.28,492.58,20.15,0000 0000 0000 0000 000000
2014-06-17 11:23:47,0.04,1.06,0.00,25.90,30.40,33.30,9.57,39.52,1017.53,2024.45,2997.96,2998.46,3245.65,500.06,492.22,20.19,0000 0000 0000 0000 000000
2014-06-17 11:28:48,0.02,1.06,0.00,25.90,30.37,33.26,9.53,39.47,1017.59,2024.87,2997.95,2998.67,3245.86,500.24,492.50,20.24,0000 0000 0000 0000 000000
2014-06-17 11:33:50,-0.00,1.06,0.00,25.88,30.35,33.28,9.51,39.49,1017.59,2024.91,2997.97,2998.87,3245.92,499.97,492.27,20.28,0000 0000 0000 0000 000000
2014-06-17 11:38:51,0.00,1.06,0.00,25.86,30.33,33.23,9.60,39.38,1017.60,2024.98,2997.99,2998.97,3245.99,500.33,492.57,20.32,0000 0000 0000 0000 000000
2014-06-17 11:43:52,0.00,1.06,0.00,25.82,30.31,33.10,9.57,39.56,1017.60,2024.99,2997.99,2998.98,3245.99,500.80,493.14,20.36,0000 0000 0000 0000 000000
2014-06-17 11:48:53,0.00,1.06,0.00,25.77,30.29,33.08,9.54,39.49,1017.67,2024.99,2997.99,2998.99,3245.99,500.12,492.71,20.40,0000 0000 0000 0000 000000
2014-06-17 11:53:54,0.00,1.06,0.00,25.69,30.27,33.00,9.46,39.53,1018.00,2024.99,2997.99,2998.99,3246.00,499.85,492.89,20.45,0000 0000 0000 0000 000000
2014-06-17 11:58:55,0.00,1.06,0.00,25.62,30.25,32.89,9.52,39.63,1018.08,2024.99,2997.99,2998.99,3246.00,500.02,493.24,20.49,0000 0000 0000 0000 000000
2014-06-17 12:03:56,0.00,1.06,0.00,25.55,30.22,32.90,9.60,39.58,1018.08,2025.00,2997.99,2999.03,3246.01,499.90,493.14,20.53,0000 0000 0000 0000 000000
2014-06-17 12:08:57,-0.01,1.06,0.00,25.52,30.20,32.88,9.48,39.52,1018.08,2025.04,2998.00,2999.28,3246.29,500.24,493.23,20.57,0000 0000 0000 0000 000000
2014-06-17 12:13:59,0.00,1.06,0.00,25.49,30.17,32.82,9.50,39.57,1018.11,2025.24,2998.11,2999.74,3246.79,499.59,492.82,20.61,0000 0000 0000 0000 000000
2014-06-17 12:19:00,0.04,1.06,0.00,25.48,30.14,32.85,9.50,39.46,1018.12,2025.53,2998.11,2999.93,3246.92,499.92,493.33,20.65,0000 0000 0000 0000 000000
2014-06-17 12:24:01,0.02,1.07,0.00,25.48,30.11,32.80,9.58,39.54,1018.29,2025.93,2998.27,2999.99,3246.98,500.14,493.51,20.70,0000 0000 0000 0000 000000
2014-06-17 12:29:02,-0.01,1.07,0.00,25.47,30.09,32.83,9.54,39.57,1018.43,2025.98,2998.39,2999.99,3246.99,499.66,493.19,20.74,0000 0000 0000 0000 000000
2014-06-17 12:34:04,-0.00,1.07,0.00,25.44,30.06,32.77,9.55,39.62,1018.52,2025.99,2998.79,2999.99,3247.00,500.05,493.61,20.78,0000 0000 0000 0000 000000
2014-06-17 12:39:05,0.00,1.07,0.00,25.41,30.04,32.78,9.52,39.58,1018.57,2025.99,2998.92,3000.01,3247.01,500.05,493.61,20.82,0000 0000 0000 0000 000000
2014-06-17 12:44:06,-0.00,1.07,0.00,25.39,30.01,32.71,9.53,39.37,1018.59,2025.99,2998.96,3000.08,3247.04,499.93,493.34,20.86,0000 0000 0000 0000 000000
2014-06-17 12:49:07,-0.01,1.07,0.00,25.37,29.99,32.68,9.44,39.49,1018.62,2026.03,2998.95,3000.45,3247.25,499.59,493.32,20.91,0000 0000 0000 0000 000000
2014-06-17 12:54:08,-0.01,1.06,0.00,25.33,29.96,32.67,9.50,39.40,1018.59,2026.08,2998.98,3000.79,3247.54,499.81,493.67,20.95,0000 0000 0000 0000 000000
2014-06-17 12:59:10,0.02,1.06,0.00,25.30,29.93,32.65,9.55,39.34,1018.61,2026.25,2998.98,3000.98,3247.88,500.16,493.94,20.99,0000 0000 0000 0000 000000